KASHIWA
1 59508U 98067WH  24221.71558540  .01929415  32118-2  19133-2 0  9990
2 59508  51.6147  38.7727 0012938 276.1476  83.8064 16.11165042 18806
MESAT1
1 60209U 24125G   24221.83954437  .00019793  00000-0  91055-3 0  9997
2 60209  97.3186  73.6546 0027676 137.2981 223.0412 15.20020936  5415
GRBBeta
1 60237U 24128C   24221.92122231  .00007585  00000-0  66868-3 0  9990
2 60237  61.9945  57.6446 0011646 306.0960  53.9049 14.97136477  4494
ROBUSTA-3A
1 60243U 24128J   24221.87697571  .00011913  00000-0  10676-2 0  9990
2 60243  61.9921  57.9675 0013003 278.2404  81.7209 14.96094277  4491
CatSat
1 60246U 24125J   24221.65745011  .00014390  00000-0  65250-3 0  9990
2 60246  97.3010  74.7763 0054253  92.7985 267.9462 15.19586772  3508
